Location: Honolulu
(21.3069°N, 157.8583°W)
Time: 06:29:37
(UTC-10:00)

Tiros 1 despin weight - Pass Details

Date: 14 May 2026
Orbit: 554 x 591 km, 48.2° (Epoch: 10 June)

Event Time Altitude Azimuth Distance (km) Brightness Sun altitude
Exits shadow 03:33:24 28° 91° (E) 1,078 ? -29.5°
Drops below altitude 10° 03:35:55 10° 64° (ENE) 1,853 ? -29.0°
Sets 03:38:17 0° 55° (NE) 2,744 ? -28.6°
